Weather History for Saginaw Browne, MI

Change the Weather History Date:

Friday, September 21, 2012

  Actual Average (KMBS) Record (KMBS)
Temperature  
Mean Temperature 57 °F 59 °F  
Max Temperature 68 °F 70 °F 89 °F (2005)
Min Temperature 46 °F 49 °F 36 °F (1999)
Degree Days  
Heating Degree Days 8    
Month to date heating degree days  
Since 1 July heating degree days  
Cooling Degree Days 0    
Month to date cooling degree days  
Year to date cooling degree days  
Growing Degree Days 7 (Base 50)    
Moisture  
Dew Point 45 °F    
Average Humidity 73    
Maximum Humidity 100    
Minimum Humidity 33    
Precipitation  
Precipitation 0.00 in 0.14 in 1.29 in (2014)
Month to date precipitation 2.73  
Year to date precipitation 23.25  
Snow  
Snow 0.00 in - - ()
Month to date snowfall  
Since 1 July snowfall  
Since 1 September snowfall  
Snow Depth -    
Sea Level Pressure  
Sea Level Pressure 29.86 in    
Wind  
Wind Speed 6 mph (SW)    
Max Wind Speed 16 mph    
Max Gust Speed 28 mph    
Visibility 10 miles    
Events Rain    
T = Trace of Precipitation, MM = Missing Value Source: NWS Daily Summary

Daily Weather History Graph

Daily Weather History Graph

Search for Another Location

Airport:

Trip Planner

Search our weather history database for the weather conditions in past years. The results will help you decide how hot, cold, wet, or windy it might be!

Date:

Astronomy

Sep. 21, 2012 Rise Set
Actual Time 7:22 AM EDT 7:33 PM EDT
Civil Twilight 6:53 AM EDT 8:02 PM EDT
Nautical Twilight 6:20 AM EDT 8:35 PM EDT
Astronomical Twilight 5:45 AM EDT 9:09 PM EDT
Moon 1:53 PM EDT (9/21) 11:22 PM EDT (9/21)
Length of Visible Light 13h 08m
Length of Day
12h 11m
Waxing Crescent, 37% of the Moon is Illuminated
Sep 21
Waxing Crescent
Sep 22
First Quarter
Sep 29
Full
Oct 8
Last Quarter
Oct 15
New

Hourly Weather History & Observations

Time (EDT) Temp. Windchill Dew Point Humidity Pressure Visibility Wind Dir Wind Speed Gust Speed Precip Events Conditions
12:33 AM 53.6 °F - 44.6 °F 72% 29.86 in 10.0 mi SW 4.6 mph - N/A   Mostly Cloudy
12:53 AM 51.8 °F - 44.6 °F 76% 29.87 in 10.0 mi South 4.6 mph - N/A   Scattered Clouds
1:13 AM 51.8 °F - 42.8 °F 71% 29.87 in 10.0 mi SSW 6.9 mph - N/A   Scattered Clouds
1:33 AM 50.0 °F - 42.8 °F 76% 29.87 in 10.0 mi SSW 5.8 mph - N/A   Clear
1:53 AM 51.8 °F - 42.8 °F 71% 29.87 in 10.0 mi SW 5.8 mph - N/A   Clear
2:13 AM 50.0 °F - 42.8 °F 76% 29.88 in 10.0 mi SW 5.8 mph - N/A   Clear
2:34 AM 50.0 °F - 42.8 °F 76% 29.88 in 10.0 mi SSW 6.9 mph - N/A   Clear
2:54 AM 50.0 °F - 42.8 °F 76% 29.88 in 10.0 mi SW 6.9 mph - N/A   Clear
3:14 AM 46.4 °F - 42.8 °F 87% 29.88 in 10.0 mi Calm Calm - N/A   Clear
3:34 AM 46.4 °F - 42.8 °F 87% 29.88 in 10.0 mi Calm Calm - N/A   Clear
3:54 AM 46.4 °F 45.2 °F 42.8 °F 87% 29.89 in 10.0 mi SSW 3.5 mph - N/A   Clear
4:14 AM 46.4 °F 45.2 °F 42.8 °F 87% 29.88 in 10.0 mi SW 3.5 mph - N/A   Clear
4:34 AM 46.4 °F 43.5 °F 42.8 °F 87% 29.89 in 10.0 mi South 5.8 mph - N/A   Clear
4:54 AM 46.4 °F 45.2 °F 44.6 °F 93% 29.89 in 10.0 mi SSW 3.5 mph - N/A   Clear
5:14 AM 46.4 °F 43.5 °F 44.6 °F 93% 29.89 in 10.0 mi SSW 5.8 mph - N/A   Scattered Clouds
5:29 AM 46.4 °F 44.3 °F 44.6 °F 93% 29.89 in 10.0 mi SW 4.6 mph - N/A   Scattered Clouds
5:50 AM 46.4 °F 44.3 °F 44.6 °F 93% 29.89 in 10.0 mi SW 4.6 mph - N/A   Clear
6:10 AM 46.4 °F - 44.6 °F 93% 29.89 in 10.0 mi Calm Calm - N/A   Scattered Clouds
6:30 AM 46.4 °F 45.2 °F 44.6 °F 93% 29.89 in 10.0 mi SW 3.5 mph - N/A   Scattered Clouds
6:50 AM 46.4 °F 45.2 °F 44.6 °F 93% 29.89 in 10.0 mi SW 3.5 mph - N/A   Clear
7:10 AM 46.4 °F - 44.6 °F 93% 29.90 in 10.0 mi Calm Calm - N/A   Clear
7:30 AM 46.4 °F - 44.6 °F 93% 29.89 in 10.0 mi Calm Calm - N/A   Clear
7:50 AM 46.4 °F 45.2 °F 44.6 °F 93% 29.90 in 10.0 mi SSW 3.5 mph - N/A   Scattered Clouds
8:30 AM 48.2 °F - 46.4 °F 93% 29.90 in 10.0 mi SSW 4.6 mph - N/A   Clear
8:51 AM 50.0 °F - 46.4 °F 87% 29.90 in 10.0 mi SSW 3.5 mph - N/A   Clear
9:11 AM 50.0 °F - 46.4 °F 87% 29.90 in 10.0 mi Calm Calm - N/A   Clear
9:31 AM 51.8 °F - 46.4 °F 82% 29.89 in 10.0 mi SW 3.5 mph - N/A   Clear
9:51 AM 53.6 °F - 46.4 °F 77% 29.90 in 10.0 mi Calm Calm - N/A   Clear
10:11 AM 55.4 °F - 46.4 °F 72% 29.90 in 10.0 mi South 4.6 mph - N/A   Clear
10:31 AM 57.2 °F - 46.4 °F 67% 29.90 in 10.0 mi South 4.6 mph - N/A   Clear
10:51 AM 59.0 °F - 46.4 °F 63% 29.90 in 10.0 mi SSW 4.6 mph - N/A   Scattered Clouds
11:12 AM 59.0 °F - 46.4 °F 63% 29.89 in 10.0 mi SSW 10.4 mph - N/A   Clear
11:32 AM 60.8 °F - 44.6 °F 55% 29.89 in 10.0 mi SSW 9.2 mph - N/A   Clear
11:52 AM 62.6 °F - 44.6 °F 52% 29.89 in 10.0 mi South 9.2 mph - N/A   Clear
12:12 PM 64.4 °F - 44.6 °F 49% 29.88 in 10.0 mi SSW 9.2 mph - N/A   Clear
12:32 PM 64.4 °F - 41.0 °F 42% 29.87 in 10.0 mi SW 12.7 mph 17.3 mph N/A   Clear
12:52 PM 64.4 °F - 41.0 °F 42% 29.86 in 10.0 mi SW 12.7 mph 20.7 mph N/A   Clear
1:12 PM 68.0 °F - 37.4 °F 33% 29.86 in 10.0 mi SW 15.0 mph 20.7 mph N/A   Scattered Clouds
1:32 PM 68.0 °F - 37.4 °F 33% 29.85 in 10.0 mi SSW 16.1 mph 27.6 mph N/A   Scattered Clouds
1:53 PM 68.0 °F - 37.4 °F 33% 29.85 in 10.0 mi WSW 13.8 mph 23.0 mph N/A   Scattered Clouds
2:13 PM 68.0 °F - 37.4 °F 33% 29.84 in 10.0 mi SW 15.0 mph 20.7 mph N/A   Mostly Cloudy
2:33 PM 66.2 °F - 37.4 °F 35% 29.84 in 10.0 mi SW 12.7 mph 18.4 mph N/A   Overcast
2:53 PM 66.2 °F - 37.4 °F 35% 29.83 in 10.0 mi SW 11.5 mph - N/A   Overcast
3:13 PM 64.4 °F - 37.4 °F 37% 29.83 in 10.0 mi WSW 10.4 mph 18.4 mph N/A   Overcast
3:53 PM 64.4 °F - 39.2 °F 40% 29.81 in 10.0 mi WSW 6.9 mph - N/A   Overcast
4:13 PM 64.4 °F - 39.2 °F 40% 29.81 in 10.0 mi WSW 11.5 mph - N/A   Overcast
4:34 PM 64.4 °F - 39.2 °F 40% 29.82 in 10.0 mi WNW 13.8 mph 18.4 mph N/A   Overcast
4:54 PM 62.6 °F - 44.6 °F 52% 29.82 in 10.0 mi WNW 13.8 mph - N/A   Mostly Cloudy
5:14 PM 60.8 °F - 44.6 °F 55% 29.83 in 10.0 mi West 11.5 mph 16.1 mph N/A   Mostly Cloudy
5:34 PM 60.8 °F - 44.6 °F 55% 29.82 in 10.0 mi WSW 15.0 mph 18.4 mph N/A   Overcast
5:54 PM 59.0 °F - 44.6 °F 59% 29.82 in 10.0 mi SW 15.0 mph 20.7 mph N/A   Mostly Cloudy
6:14 PM 59.0 °F - 44.6 °F 59% 29.82 in 10.0 mi SW 11.5 mph 17.3 mph N/A   Overcast
6:34 PM 59.0 °F - 44.6 °F 59% 29.83 in 10.0 mi SW 10.4 mph 23.0 mph N/A   Overcast
6:54 PM 59.0 °F - 44.6 °F 59% 29.83 in 10.0 mi SW 13.8 mph 17.3 mph N/A   Overcast
7:09 PM 57.2 °F - 46.4 °F 67% 29.83 in 10.0 mi SW 10.4 mph - N/A   Light Drizzle
7:30 PM 55.4 °F - 50.0 °F 82% 29.83 in 10.0 mi SSW 10.4 mph - N/A Rain Light Rain
7:50 PM 53.6 °F - 50.0 °F 88% 29.83 in 10.0 mi SSW 8.1 mph - N/A   Drizzle
8:10 PM 53.6 °F - 50.0 °F 88% 29.82 in 10.0 mi SSW 8.1 mph - N/A   Drizzle
8:30 PM 53.6 °F - 50.0 °F 88% 29.83 in 10.0 mi SSW 8.1 mph - N/A Rain Rain
8:50 PM 53.6 °F - 50.0 °F 88% 29.84 in 10.0 mi South 8.1 mph - N/A Rain Light Rain
9:10 PM 51.8 °F - 50.0 °F 94% 29.83 in 10.0 mi SSW 6.9 mph - N/A Rain Light Rain
9:30 PM 51.8 °F - 50.0 °F 94% 29.83 in 10.0 mi SSW 9.2 mph - N/A Rain Light Rain
9:50 PM 51.8 °F - 50.0 °F 94% 29.82 in 10.0 mi SSW 9.2 mph - N/A Rain Rain
10:10 PM 51.8 °F - 50.0 °F 94% 29.82 in 10.0 mi SSW 9.2 mph - N/A Rain Light Rain
10:30 PM 51.8 °F - 50.0 °F 94% 29.82 in 10.0 mi SSW 10.4 mph - N/A   Drizzle
10:51 PM 51.8 °F - 50.0 °F 94% 29.81 in 10.0 mi SSW 8.1 mph - N/A Rain Rain
11:11 PM 51.8 °F - 51.8 °F 100% 29.79 in 10.0 mi SSW 8.1 mph - N/A   Light Drizzle
11:31 PM 51.8 °F - 51.8 °F 100% 29.78 in 10.0 mi SW 4.6 mph - N/A   Overcast
11:51 PM 51.8 °F - 50.0 °F 94% 29.76 in 10.0 mi SW 4.6 mph - N/A   Mostly Cloudy